Flag for Switzerland Weather past 2 weeks in Lausanne, Vaud, Switzerland

Now
33 °F

Snow flurries. Overcast.


Feels Like: 33 °F
Forecast: 19 / 35 °F
Wind: 1 mph from Northwest

Location: Aigle

Current Time: Feb 1, 2015 at 2:31:15 PM

Latest Report: Feb 1, 2015 at 1:00 PM


Visibility: 8 mi

Pressure: 29.47 "Hg

Humidity: 96%

Dew point: 32 °F

Location of LausanneLocation

Historic Weather in Lausanne — Graph

°F

Lausanne temperature yesterday

Maximum temperature yesterday: 36 °F (at 1:00 PM)
Minimum temperature yesterday: 25 °F (at 6:00 AM)
Average temperature yesterday: 32 °F

Past Weeks' High & Low Weather Summary

 TemperatureHumidityPressure
High40 °F (Jan 21, 2:00 PM)100% (Jan 17, 11:00 PM)30.42 "Hg (Jan 17, 11:00 PM)
Low22 °F (Jan 28, 6:00 AM)55% (Jan 25, 4:00 PM)29.00 "Hg (Jan 29, 11:00 PM)
Average34 °F84%29.90 "Hg
* Reported Jan 17 1:00 PM — Feb 1 1:00 PM, Lausanne, Weather by CustomWeather, © 2014

Note: Actual official high and low records may vary slightly from our data, if they occured in-between our weather recording intervals... More about our weather records

Advertising

Lausanne weather history for previous 24 hours

 ConditionsComfort  
Time TempWeatherWind HumidityBarometerVisibility
1:00 PM
Feb 1
33 °FSnow flurries. Overcast.1 mph96%29.47 "Hg7 mi
12:00 PM33 °FChilly.2 mph93%29.44 "HgN/A
11:00 AM32 °FChilly.1 mph93%29.44 "HgN/A
10:00 AM32 °FSnow flurries. Overcast.1 mph94%29.41 "Hg10 mi
9:00 AM32 °FChilly.1 mph95%29.38 "HgN/A
8:00 AM31 °FChilly.No wind98%29.35 "HgN/A
7:00 AM31 °FOvercast.1 mph96%29.32 "Hg9 mi
6:00 AM31 °FChilly.1 mph96%29.32 "HgN/A
5:00 AM32 °FChilly.1 mph92%29.32 "HgN/A
4:00 AM32 °FOvercast.1 mph90%29.32 "Hg10 mi
3:00 AM31 °FChilly.2 mph92%29.29 "HgN/A
2:00 AM31 °FChilly.5 mph95%29.29 "HgN/A
1:00 AM30 °FChilly.1 mph98%29.32 "HgN/A
12:00 AM32 °FChilly.5 mph94%29.29 "HgN/A
11:00 PM
Jan 31
33 °FChilly.3 mph96%29.29 "HgN/A
10:00 PM33 °FChilly.1 mph98%29.29 "HgN/A
9:00 PM33 °FChilly.2 mph97%29.26 "HgN/A
8:00 PM31 °FChilly.2 mph98%29.26 "HgN/A
7:00 PM33 °FFog.No wind96%29.23 "Hg3 mi
6:00 PM33 °FChilly.No wind97%29.23 "HgN/A
5:00 PM33 °FChilly.2 mph96%29.21 "HgN/A
4:00 PM35 °FOvercast.3 mph87%29.18 "Hg12 mi
3:00 PM36 °FChilly.3 mph78%29.18 "HgN/A
2:00 PM36 °FChilly.2 mph72%29.15 "HgN/A
Weather by CustomWeather, © 2014

See weather overviewHow to use our weather pages